Location: Killam
(52.7910°N, 111.8608°W)
Time: 11:58:34
(UTC+00:00)

AO-73 - Pass Details

Date: 20 March 2026
Orbit: 514 x 567 km, 97.8° (Epoch: 13 April)

Event Time Altitude Azimuth Distance (km) Brightness Sun altitude
Rises 11:27:39 0° 14° (NNE) 2,665 ? -18.6°
Reaches altitude 10° 11:29:46 10° 14° (NNE) 1,765 ? -18.3°
Maximum altitude 11:33:35 90° 139° (SE) 524 ? -17.8°
Enters shadow 11:35:28 28° 195° (SSW) 987 ? -17.6°
